Flag for Belgium Weather past 2 weeks in Mechelen, Belgium

Now
68 °F

Scattered clouds.


Feels Like: 68 °F
Forecast: 62 / 78 °F
Wind: 5 mph from Northwest

Location: Brussels National Airport

Current Time: Jul 26, 2014 at 11:54:01 AM

Latest Report: Jul 26, 2014 at 11:20 AM


Visibility: 6 mi

Pressure: 29.98 "Hg

Humidity: 73%

Dew point: 59 °F

Location of MechelenLocation

Historic Weather in Mechelen — Graph

°F

Mechelen temperature yesterday

Maximum temperature yesterday: 73 °F (at 12:50 PM)
Minimum temperature yesterday: 55 °F (at 4:50 AM)
Average temperature yesterday: 65 °F

Past Weeks' High & Low Weather Summary

 TemperatureHumidityPressure
High90 °F (Jul 18, 3:50 PM)100% (Jul 12, 6:20 AM)30.18 "Hg (Jul 12, 6:20 AM)
Low54 °F (Jul 15, 2:20 AM)33% (Jul 19, 2:20 PM)29.74 "Hg (Jul 13, 4:20 PM)
Average68 °F75%29.98 "Hg
* Reported Jul 11 10:20 AM — Jul 26 10:50 AM, Mechelen, Weather by CustomWeather, © 2014

Note: Actual official high and low records may vary slightly from our data, if they occured in-between our weather recording intervals... More about our weather records

Advertising

Mechelen weather history for previous 24 hours

 ConditionsComfort  
Time TempWeatherWind HumidityBarometerVisibility
10:50 AM
Jul 26
68 °FScattered clouds.3 mph73%29.98 "Hg6 mi
10:20 AM68 °FPartly sunny.6 mph73%29.98 "Hg5 mi
9:50 AM66 °FPartly sunny.3 mph83%29.98 "Hg5 mi
9:20 AM66 °FPartly sunny.1 mph83%29.95 "Hg5 mi
8:50 AM66 °FPartly sunny.No wind83%29.95 "Hg5 mi
8:20 AM66 °FPartly sunny.1 mph83%29.95 "Hg4 mi
7:50 AM64 °FPartly sunny.2 mph83%29.95 "Hg4 mi
7:20 AM63 °FPartly sunny.2 mph88%29.95 "Hg4 mi
6:50 AM63 °FPassing clouds.2 mph88%29.95 "Hg4 mi
6:20 AM63 °FPassing clouds.3 mph88%29.95 "Hg4 mi
5:50 AM61 °FPassing clouds.2 mph94%29.95 "Hg5 mi
5:20 AM63 °FPassing clouds.1 mph88%29.95 "Hg6 mi
4:50 AM63 °FPassing clouds.1 mph88%29.95 "HgN/A
4:20 AM63 °FPassing clouds.No wind88%29.95 "HgN/A
3:50 AM63 °FPassing clouds.2 mph88%29.95 "HgN/A
3:20 AM63 °FPassing clouds.2 mph88%29.95 "HgN/A
2:50 AM63 °FPassing clouds.2 mph88%29.95 "HgN/A
2:20 AM63 °FPartly cloudy.2 mph88%29.95 "HgN/A
1:50 AM63 °FPartly cloudy.2 mph88%29.95 "HgN/A
1:20 AM64 °FPartly cloudy.1 mph83%29.95 "HgN/A
12:50 AM64 °FPartly cloudy.1 mph83%29.95 "HgN/A
12:20 AM64 °FPassing clouds.5 mph83%29.95 "HgN/A
11:50 PM
Jul 25
64 °FPassing clouds.3 mph83%29.95 "HgN/A
11:20 PM64 °FPassing clouds.5 mph83%29.95 "HgN/A
10:50 PM64 °FPassing clouds.5 mph83%29.95 "HgN/A
10:20 PM66 °FPartly sunny.6 mph78%29.95 "HgN/A
9:50 PM66 °FPartly sunny.6 mph78%29.95 "HgN/A
9:20 PM66 °FPartly sunny.7 mph78%29.95 "HgN/A
8:50 PM66 °FBroken clouds.7 mph78%29.95 "HgN/A
8:20 PM68 °FBroken clouds.9 mph73%29.95 "HgN/A
7:50 PM68 °FPartly sunny.8 mph73%29.95 "HgN/A
7:20 PM68 °FBroken clouds.9 mph73%29.95 "HgN/A
6:50 PM68 °FScattered clouds.10 mph73%29.92 "HgN/A
6:20 PM68 °FPassing clouds.8 mph73%29.95 "HgN/A
5:50 PM70 °FPassing clouds.12 mph64%29.95 "HgN/A
5:20 PM70 °FScattered clouds.10 mph64%29.95 "HgN/A
4:50 PM72 °FPassing clouds.12 mph61%29.95 "HgN/A
4:20 PM72 °FPassing clouds.13 mph65%29.95 "HgN/A
3:50 PM72 °FPassing clouds.13 mph61%29.95 "HgN/A
3:20 PM72 °FPassing clouds.15 mph61%29.95 "HgN/A
2:50 PM72 °FPassing clouds.16 mph61%29.95 "HgN/A
2:20 PM73 °FScattered clouds.15 mph57%29.95 "HgN/A
1:50 PM73 °FScattered clouds.12 mph57%29.98 "HgN/A
1:20 PM73 °FScattered clouds.12 mph61%29.98 "HgN/A
12:50 PM73 °FScattered clouds.12 mph61%29.98 "HgN/A
12:20 PM72 °FScattered clouds.9 mph73%29.98 "HgN/A
11:50 AM72 °FScattered clouds.8 mph69%29.98 "HgN/A
11:20 AM70 °FPassing clouds.9 mph73%29.98 "HgN/A
Weather by CustomWeather, © 2014

See weather overviewHow to use our weather pages